This demonstration page uses our WeatherBlox Daily Observations layout. Learn more.

Left ArrowRight Arrow

Hourly Observations for June 1, 2018

Temp ( °F °C ) Dew Point ( °F °C ) Humidity (%) Winds ( mph kmh ) Pressure ( in mb ) Visibility ( mi km ) Precip ( " mm )
12:04 am 00:04 Mostly Cloudy 70 21.1 67 19.4 90 90 Calm 29.88 1012 10 16 0.00 0.00
12:13 am 00:13 Partly Cloudy 69 20.6 67 19.4 93 93 S 3 6 29.85 1011 10 16 0.00 0.00
12:53 am 00:53 Clear 69 20.6 66 18.9 90 90 SSW 3 6 29.85 1011 10 16 0.00 0.00
1:53 am 01:53 Clear 69 20.6 66 18.9 90 90 Calm 29.83 1010 10 16 0.00 0.00
2:53 am 02:53 Clear 69 20.6 66 18.9 90 90 Calm 29.82 1010 10 16 0.00 0.00
3:53 am 03:53 Mostly Cloudy 69 20.6 66 18.9 90 90 Calm 29.83 1010 10 16 0.00 0.00
4:53 am 04:53 Mostly Cloudy 69 20.6 67 19.4 93 93 SSW 3 6 29.83 1010 10 16 0.00 0.00
5:00 am 05:00 Mostly Cloudy with Nearby Thunderstorms 69 20.6 67 19.4 93 93 Calm 29.85 1011 10 16 0.00 0.03
5:21 am 05:21 Cloudy 69 20.6 67 19.4 93 93 WSW 3 6 29.85 1011 10 16 0.00 0.03
5:44 am 05:44 Cloudy with Light Rain 69 20.6 68 20 96 96 Calm 29.85 1011 7 11 0.01 0.25
5:53 am 05:53 Cloudy with Light Rain 69 20.6 68 20 96 96 Calm 29.83 1010 10 16 0.01 0.25
6:05 am 06:05 Cloudy with Light Rain 69 20.6 68 20 96 96 WSW 3 6 29.85 1011 9 14 0.01 0.25
6:27 am 06:27 Mostly Cloudy with Light Rain 69 20.6 69 20.6 100 100 Calm 29.85 1011 5 8 0.02 0.51
6:44 am 06:44 Cloudy with Rain 69 20.6 69 20.6 100 100 W 3 6 29.85 1011 3 5 0.05 1.27
6:53 am 06:53 Cloudy with Light Rain 69 20.6 69 20.6 100 100 Calm 29.85 1011 3 5 0.06 1.52
7:00 am 07:00 Cloudy with Light Rain 69 20.6 69 20.6 100 100 Calm 29.88 1012 3 5 0.01 0.25
7:07 am 07:07 Cloudy with Light Rain 69 20.6 69 20.6 100 100 Calm 29.88 1012 4 6 0.01 0.25
7:31 am 07:31 Cloudy with Light Rain 69 20.6 69 20.6 100 100 Calm 29.88 1012 7 11 0.01 0.25
7:45 am 07:45 Cloudy with Light Rain 70 21.1 69 20.6 97 97 Calm 29.88 1012 6 10 0.02 0.51
7:53 am 07:53 Cloudy with Light Rain 70 21.1 69 20.6 97 97 Calm 29.85 1011 6 10 0.02 0.51
8:53 am 08:53 Mostly Cloudy 71 21.7 70 21.1 96 96 SW 5 7 29.85 1011 10 16 0.00 0.03
9:02 am 09:02 Mostly Cloudy 71 21.7 70 21.1 96 96 VRB 5 7 29.88 1012 10 16 0.00 0.00
9:53 am 09:53 Mostly Cloudy 73 22.8 70 21.1 90 90 VRB 6 9 29.87 1011 10 16 0.00 0.00
10:49 am 10:49 Cloudy 73 23 70 21 89 89 WSW 5 7 29.91 1013 10 16 0.00 0.00
10:53 am 10:53 Cloudy 73 22.8 70 21.1 90 90 W 7 11 29.88 1012 10 16 0.00 0.00
11:35 am 11:35 Cloudy 74 23.3 70 21.1 88 88 WSW 6 9 29.91 1013 10 16 0.00 0.00
11:53 am 11:53 Cloudy 75 23.9 70 21.1 84 84 WSW 5 7 29.88 1012 10 16 0.00 0.00
12:53 pm 12:53 Mostly Cloudy 77 25 70 21.1 79 79 WSW 6 9 29.88 1012 10 16 0.00 0.00
1:53 pm 13:53 Partly Cloudy 80 26.7 71 21.7 74 74 W 8 13 29.87 1012 10 16 0.00 0.00
2:53 pm 14:53 Mostly Cloudy 79 26.1 70 21.1 74 74 SW 8 13 29.85 1011 10 16 0.00 0.00
3:01 pm 15:01 Mostly Cloudy 80 26.7 71 21.7 74 74 SW 7 11 29.85 1011 10 16 0.00 0.00
3:53 pm 15:53 Mostly Sunny 83 28.3 72 22.2 70 70 undefined N/A 29.83 1010 10 16 0.00 0.00
4:39 pm 16:39 Mostly Cloudy with Thunderstorms 82 27.8 71 21.7 69 69 VRB 5 7 29.80 1009 10 16 0.00 0.00
4:53 pm 16:53 Mostly Cloudy with Thunderstorms 81 27.2 71 21.7 72 72 WSW 6 9 29.83 1010 10 16 0.00 0.00
5:26 pm 17:26 Cloudy with Strong Thunderstorms 74 23.3 70 21.1 88 88 VRB 3 6 29.85 1011 2 3 0.10 2.54
5:32 pm 17:32 Cloudy with Thunderstorms 73 22.8 71 21.7 94 94 Calm 29.85 1011 3 5 0.10 2.54
5:50 pm 17:50 Mostly Cloudy with Nearby Thunderstorms 73 23 72 22 94 94 WNW 6 9 29.85 1011 10 16 0.10 2.54
5:53 pm 17:53 Mostly Cloudy with Nearby Thunderstorms 74 23.3 72 22.2 94 94 WNW 10 17 29.84 1011 10 16 0.10 2.54
6:33 pm 18:33 Sunny 73 22.8 71 21.7 94 94 Calm 29.85 1011 10 16 0.00 0.00
6:53 pm 18:53 Sunny 72 22.2 70 21.1 94 94 WSW 6 9 29.84 1010 10 16 0.00 0.00
7:53 pm 19:53 Sunny 72 22.2 68 20 87 87 W 5 7 29.85 1011 10 16 0.00 0.00
8:53 pm 20:53 Partly Cloudy 70 21.1 68 20 93 93 SW 5 7 29.87 1011 10 16 0.00 0.00
9:53 pm 21:53 Mostly Cloudy 70 21.1 69 20.6 97 97 Calm 29.88 1012 10 16 0.00 0.00
10:53 pm 22:53 Clear 68 20 68 20 100 100 Calm 29.88 1012 9 14 0.00 0.00
11:53 pm 23:53 Clear 69 20.6 68 20 96 96 Calm 29.87 1012 10 16 0.00 0.00

Powered by AerisWeather